#002 Trackday in a Lotus Exige

Time remaining
Current bid
$100,010

Bidding

Please sign in if you'd like to place a bid.
It's free and simple to do.

About this item

Get on track in the amazing Lotus Exige v6 Cup!

The Exige Cup is powered by a 3.5 litre Toyota DOHC V6 VVT-i, 24-valve, equipped with Harrop HTV 1320 supercharger producing 345 hp (350 PS) and 400 N⋅m (295 lb⋅ft) of torque at 7,000 rpm.

It has a 6-speed Toyota EC60 close ratio manual transmission, sequential gearbox with paddleshift. 

The mid-mounted, transverse layout results in near-perfect weight distribution. 0-60 mph takes 3.8 seconds, and the top speed is 170 mph.

Value: $1,500
Bidding ends: 9:00am, 31 December 20219:00am, Friday 31 December 2021America/Los Angeles
Subject to an automatic extension of 10 minutes, if a bid is received within 10 minutes of expiry.

Bidding

Bidder Time Bid
Menlo IT 11:03am $100,010
Mending Casts 9:04pm 28 Nov 2021 $100,000
Mending Casts 9:04pm 28 Nov 2021 $5,000
Mending Casts 9:03pm 28 Nov 2021 $3,010
kaparmar 9:03pm 28 Nov 2021 $3,000
kaparmar 8:01pm 14 Nov 2021 $2,510
Fran Varona 1 8:01pm 14 Nov 2021 $2,500
Fran Varona 1 8:15am 09 Nov 2021 $2,010
Nicholas Ramlochan 5:17pm 07 Nov 2021 $2,000
For the love of art and medical research 5:17pm 07 Nov 2021 $2,000
Nicholas Ramlochan 7:00am 23 Sep 2021 $1,810
User 106 7:00am 23 Sep 2021 $1,800
Nicholas Ramlochan 6:53pm 10 Sep 2021 $1,790
Rocinante 6:53pm 10 Sep 2021 $1,780
Rocinante 1:57am 07 Sep 2021 $1,750
auction steve 1:57am 07 Sep 2021 $1,740
auction steve 10:49am 06 Sep 2021 $1,710
Truong Pham 8:23am 04 Sep 2021 $1,700
Thijs Hof 8:23am 04 Sep 2021 $1,700
Truong Pham 1:01pm 31 Aug 2021 $1,640
Melody 4:16pm 25 Aug 2021 $1,630
dean 1971 4:16pm 25 Aug 2021 $1,530
dean 1971 3:05pm 24 Aug 2021 $1,510
Sparky 2:05am 21 Aug 2021 $1,500
howwies 2:05am 21 Aug 2021 $1,100